EDT,Max TemperatureF,Mean TemperatureF,Min TemperatureF,Max Dew PointF,MeanDew PointF,Min DewpointF,Max Humidity, Mean Humidity, Min Humidity, Max Sea Level PressureIn, Mean Sea Level PressureIn, Min Sea Level PressureIn, Max VisibilityMiles, Mean VisibilityMiles, Min VisibilityMiles, Max Wind SpeedMPH, Mean Wind SpeedMPH, Max Gust SpeedMPH,PrecipitationIn, CloudCover, Events, WindDirDegrees
2013-8-1,70,68,67,70,67,62,100,95,77,30.03,29.87,29.81,10,8,1,17,6,25,0.59,7,Rain-Thunderstorm,169
2013-8-2,84,74,66,70,66,62,100,85,49,29.93,29.85,29.80,10,8,4,15,3,,0.01,4,Rain,266
2013-8-3,78,72,64,68,66,64,96,82,65,29.93,29.91,29.88,10,10,10,10,5,,0.00,5,Rain,261
2013-8-4,79,70,60,64,60,53,100,82,41,29.99,29.88,29.84,10,9,5,16,4,22,0.00,1,,305
2013-8-5,76,66,57,59,53,49,81,62,39,30.07,30.04,30.00,10,10,9,13,5,21,0.00,1,Rain,322
2013-8-6,80,66,55,64,59,53,91,71,44,30.11,30.08,30.04,10,10,10,14,3,,0.00,5,Rain,182
2013-8-7,77,71,65,70,67,63,100,86,67,30.13,30.08,30.05,10,10,5,13,6,18,0.03,8,Rain,163
2013-8-8,86,78,69,75,71,69,100,93,62,30.06,30.03,29.99,10,7,1,14,6,22,0.49,7,Rain-Thunderstorm,213
2013-8-9,86,80,74,77,75,72,100,89,69,29.97,29.87,29.81,10,9,3,20,9,22,0.11,5,Rain-Thunderstorm,228
2013-8-10,82,76,70,75,66,62,99,72,51,30.04,29.98,29.88,10,10,10,12,5,,0.00,3,Rain,291
2013-8-11,84,72,61,68,62,57,96,70,45,30.12,30.07,30.02,10,10,10,9,4,,0.00,1,Rain,51
2013-8-12,80,72,66,72,70,66,100,92,71,30.04,29.96,29.92,10,9,2,10,3,,0.10,2,Rain,136
2013-8-13,81,74,68,73,70,68,100,95,65,29.92,29.80,29.70,10,5,0,20,3,,1.67,6,Fog-Rain-Thunderstorm,96
2013-8-14,75,67,60,65,52,47,79,59,46,30.06,29.90,29.76,10,9,1,16,10,74,0.17,2,Rain,318
2013-8-15,76,66,54,56,51,47,86,60,36,30.16,30.11,30.07,10,10,2,12,5,17,0.00,0,Rain,328
2013-8-16,80,66,55,57,55,52,92,70,39,30.21,30.17,30.13,10,10,10,7,2,,0.00,1,Rain,164
2013-8-17,80,67,55,61,57,54,94,62,42,30.27,30.25,30.22,10,10,10,9,3,,0.00,1,Rain,101
2013-8-18,76,68,60,64,60,57,93,78,58,30.25,30.19,30.12,10,10,10,10,4,,0.00,4,Rain,50
2013-8-19,77,68,60,65,61,58,94,76,57,30.15,30.10,30.06,10,10,10,12,6,,0.00,4,Rain,242
2013-8-20,86,74,62,68,65,62,100,86,51,30.15,30.10,30.07,10,6,0,8,3,,0.00,2,Fog-Rain,249
2013-8-21,88,76,64,71,67,61,100,83,42,30.19,30.15,30.07,10,9,5,13,3,18,0.00,1,Rain,248
2013-8-22,82,76,69,72,70,68,100,90,69,30.08,29.98,29.89,10,9,1,14,6,17,0.28,4,Rain-Thunderstorm,228
2013-8-23,77,70,63,69,64,60,98,80,56,30.09,29.99,29.90,10,10,10,10,5,,0.00,3,Rain,328
2013-8-24,78,68,58,60,55,50,91,65,37,30.34,30.25,30.10,10,10,10,10,6,17,0.00,0,Rain,40
2013-8-25,80,70,60,59,55,52,82,52,37,30.41,30.33,30.25,10,10,7,10,5,,0.00,0,Rain,261
2013-8-26,84,72,60,65,62,55,93,73,49,30.27,30.11,29.94,10,10,9,16,8,,0.00,5,Rain,233
2013-8-27,86,78,71,69,67,64,88,74,53,29.93,29.89,29.85,10,10,10,13,7,17,0.00,3,Rain,277
2013-8-28,80,73,66,74,72,65,100,93,69,29.90,29.86,29.83,10,8,3,8,4,,0.24,5,Rain,139
2013-8-29,81,73,66,72,69,64,100,92,61,30.04,29.94,29.86,10,7,1,13,6,18,0.00,5,Rain,55
2013-8-30,82,73,64,70,68,64,100,81,65,30.03,29.96,29.87,10,10,10,16,6,18,0.00,4,Rain,233
2013-8-31,88,78,68,73,70,68,100,91,60,29.90,29.87,29.80,10,10,9,15,7,,0.00,6,Rain,217